Regional Weather Roundup
Issued by NWS

Home | Current Version | Previous Version | Graphics & Text | Print | Product List | Glossary On
Versions: 1 2 3 4 5 6 7 8 9 10 11 12 13 14 15 16 17 18 19 20 21 22 23 24 25 26 27 28 29 30 31 32 33 34 35 36 37 38 39 40 41 42 43 44 45 46 47 48 49 50
000
ASUS43 KMPX 131301
RWRMN
WEATHER ROUNDUP FOR MINNESOTA
NATIONAL WEATHER SERVICE TWIN CITIES/CHANHASSEN MN
700 AM CST SAT FEB 13 2016


NOTE: "FAIR" INDICATES FEW OR NO CLOUDS BELOW 12,000 FEET WITH NO
SIGNIFICANT WEATHER AND/OR OBSTRUCTIONS TO VISIBILITY. N/A MEANS
CURRENT SKY AND/OR WEATHER CONDITIONS ARE NOT AVAILABLE.

MNZ060>063-068>070-131400-
   Twin Cities Metro

CITY           SKY/WX    TMP DP  RH WIND       PRES   REMARKS
TWIN CITIES    PTCLDY    -5 -14  65 NW3       30.64R
ST PAUL        PTCLDY    -6 -14  68 NW5       30.66S WCI -17
CRYSTAL        PTCLDY    -7 -14  71 W3        30.63R
LAKEVILLE      PTCLDY   -11 -15  84 W3        30.62R
EDEN PRAIRIE   PTCLDY    -9 -15  75 W3        30.63R
SOUTH ST PAUL  PTCLDY    -5 -13  68 CALM      30.64S
LAKE ELMO      FAIR      -8 -13  77 CALM      30.63S
$$
MNZ001>005-007-008-013>017-022>024-027-028-131400-
   Northwest Minnesota

CITY           SKY/WX    TMP DP  RH WIND       PRES   REMARKS
BEMIDJI        PTCLDY   -26 -32  75 CALM      30.52F
HALLOCK        CLOUDY   -13 -18  77 SE9       30.54F WCI -31
ROSEAU         CLOUDY   -26 -33  68 S3        30.55F
WARROAD        PTCLDY   -26 -33  68 CALM      30.54S
THIEF RVR FALL CLOUDY   -17 -27  58 SE6       30.55F WCI -31
CROOKSTON      CLOUDY   -13 -18  77 SE7       30.58F WCI -29
FOSSTON          N/A    -27 -35  68 CALM      30.53F
DETROIT LAKES  CLOUDY   -13 -18  77 S5        30.54F WCI -25
MOORHEAD       CLOUDY    -8 -11  84 S8        30.59R WCI -23
PARK RAPIDS    CLOUDY   -21 -28  70 CALM      30.53S
MAHNOMEN       FAIR     -20 -25  77 SE6       30.53F WCI -35
$$
MNZ006-009>011-018-025>026-131400-
   North Central Minnesota

CITY           SKY/WX    TMP DP  RH WIND       PRES   REMARKS
BAUDETTE       PTCLDY   -26 -32  72 E3        30.53S
FLAG ISLAND    CLOUDY   -24 -27  83 CALM      30.54F
INTL FALLS     CLOUDY   -25 -30  78 CALM      30.54S
WASKISH        CLOUDY   -26 -31  75 CALM      30.53F
LONGVILLE      PTCLDY   -26 -31  75 CALM      30.54F
GRAND RAPIDS   PTCLDY   -24 -29  76 CALM      30.53R
CRANE LAKE     CLOUDY   -29 -35  75 CALM      30.57S
ORR            CLOUDY   -26 -33  68 CALM      30.49F
COOK           CLOUDY   -27 -33  75 CALM      30.53S
WALKER         FAIR     -23 -28  76 CALM      30.54S
$$
MNZ012-019>021-037-131400-
   Northeast Minnesota

CITY           SKY/WX    TMP DP  RH WIND       PRES   REMARKS
DULUTH         CLOUDY   -16 -22  74 NW7       30.49S WCI -32
ELY            CLOUDY   -26 -33  68 SW3       30.51R
HIBBING        CLOUDY   -24 -29  77 CALM      30.53R
EVELETH        CLOUDY   -20 -27  69 CALM      30.53R
DULUTH HARBOR  CLOUDY    -9 -18  64 NW8       30.63S WCI -26
TWO HARBORS    CLOUDY   -11 -20  64 NW5       30.50S WCI -23
SILVER BAY     CLEAR    -15 -24  64 CALM      30.50R
GRAND MARAIS     N/A     -9 -18  64 S3        30.54F
G MARAIS ARPRT CLOUDY   -18 -26  69 NW13G20   30.37F WCI -41
$$
MNZ029>031-032-039>041-046>048-054>057-064-131400-
   West Central Minnesota

CITY           SKY/WX    TMP DP  RH WIND       PRES   REMARKS
FERGUS FALLS   CLOUDY    -8 -15  71 SE3       30.61F
WHEATON        CLOUDY    -2  -8  78 SE9       30.60S WCI -18
MORRIS         CLOUDY    -6  -9  84 E3        30.58S
ALEXANDRIA     CLOUDY   -12 -18  74 CALM      30.55S
ELBOW LAKE     FAIR      -7 -12  77 CALM      30.57S
WADENA         CLOUDY   -18 -24  76 CALM      30.54S
GLENWOOD       CLOUDY   -13 -17  84 S3        30.57R
APPLETON       CLOUDY    -6  -9  84 CALM      30.60S
BENSON         CLOUDY    -6 -11  77 CALM      30.59S
ORTONVILLE     CLOUDY    -6 -11  77 SE3       30.58R
MADISON        CLOUDY    -2  -8  78 SE3       30.59F
WILLMAR        FAIR      -4 -11  71 E5        30.59F WCI -15
$$
MNZ033>034-036-042>043-049>051-058-059-131400-
   Central Minnesota

CITY           SKY/WX    TMP DP  RH WIND       PRES   REMARKS
ST CLOUD       PTCLDY   -13 -18  78 CALM      30.62R
SAUK CENTRE    FAIR     -15 -19  82 CALM      30.58S
PAYNESVILLE    PTCLDY   -10 -15  79 CALM      30.59F
AITKIN         CLOUDY   -22 -31  63 CALM      30.55S
PINE RIVER     PTCLDY   -24 -27  83 CALM      30.57S
BRAINERD       PTCLDY   -21 -26  77 CALM      30.56F
STAPLES        CLOUDY   -20 -26  76 CALM      30.56S
LONG PRAIRIE   FAIR     -18 -22  83 CALM      30.56S
LITTLE FALLS   PTCLDY   -17 -24  70 CALM      30.60S
LITCHFIELD     CLOUDY    -9 -13  84 CALM      30.61S
BUFFALO        PTCLDY   -10 -15  78 CALM      30.64R
MAPLE LAKE     PTCLDY   -11 -15  82 CALM      30.62S
$$
MNZ037-044-045-052-053-131400-
   East Central Minnesota

CITY           SKY/WX    TMP DP  RH WIND       PRES   REMARKS
PRINCETON      PTCLDY   -15 -18  84 CALM      30.61R
MORA           PTCLDY   -13 -18  77 CALM      30.61S
CAMBRIDGE      PTCLDY   -13 -20  70 CALM      30.60S
MOOSE LAKE     PTCLDY   -17 -22  76 CALM      30.56S
HINCKLEY         N/A    -13 -18  77 NW3       30.59S
CLOQUET        CLOUDY   -17 -24  70 NW5       30.52S WCI -29
MCGREGOR       PTCLDY   -15 -18  84 CALM      30.56S
$$
MNZ071>073-080-081-089-090-097-098-131400-
   Southwest Minnesota

CITY           SKY/WX    TMP DP  RH WIND       PRES   REMARKS
MONTEVIDEO     CLOUDY    -6  -9  84 SE3       30.61S
GRANITE FALLS  CLOUDY    -2  -8  77 NE3       30.61F
CANBY          MOCLDY     1  -6  73 E5        30.58F WCI  -9
MARSHALL       CLOUDY    -3 -10  72 E3        30.59R
REDWOOD FALLS  CLOUDY    -4  -9  79 CALM      30.61F
OLIVIA         CLOUDY    -2  -9  71 E3        30.60S
PIPESTONE      CLOUDY     0 -15  50 SE8       30.50F WCI -15
WINDOM         CLOUDY    -4  -9  77 CALM      30.56S
WORTHINGTON    CLOUDY    -4  -9  77 E5        30.54F WCI -15
JACKSON        CLOUDY    -2  -9  71 NE5       30.56S WCI -12
TRACY          CLOUDY    -2  -8  76 SE3       30.57R
SLAYTON        CLOUDY    -3  -8  79 E3        30.54S
$$
MNZ065>067-074>077-082>085-091>093-131400-
   South Central Minnesota

CITY           SKY/WX    TMP DP  RH WIND       PRES   REMARKS
MANKATO        CLOUDY    -6 -11  77 CALM      30.61R
NEW ULM        CLOUDY    -6 -11  77 CALM      30.61F
ST JAMES       CLOUDY    -6  -9  84 W3        30.63S
FAIRMONT       CLEAR     -4  -9  77 N5        30.57F WCI -15
GLENCOE        CLOUDY    -8 -12  79 CALM      30.61F
FARIBAULT      PTCLDY   -13 -17  84 CALM      30.61R
OWATONNA       CLOUDY    -9 -15  77 CALM      30.60R
WASECA         CLOUDY    -8 -13  77 CALM      30.63R
ALBERT LEA     CLOUDY    -8 -11  84 CALM      30.58S
$$
MNZ078>079-086>088-094>096-131400-
   Southeast Minnesota

CITY           SKY/WX    TMP DP  RH WIND       PRES   REMARKS
ROCHESTER      PTCLDY    -9 -15  75 N6        30.57R WCI -22
RED WING       CLOUDY   -11 -18  70 VRB2      30.63S
STANTON        CLOUDY   -13 -19  76 CALM      30.62R
DODGE CENTER   PTCLDY   -11 -17  77 NW3       30.56S
WINONA         CLOUDY    -2 -13  60 NW3       30.65S
AUSTIN         CLOUDY    -8 -13  77 CALM      30.58S
PRESTON        PTCLDY   -10 -16  73 N5        30.57S WCI -21
$$
ABBREVIATIONS USED IN REMARKS
   TC - TEMPERATURES IN CELSIUS
  WCI - WIND CHILL INDEX
   HX - HEAT INDEX
  VSB - VISIBILITY
$$



USA.gov is the U.S. government's official web portal to all federal, state and local government web resources and services.